Boonton, New Jersey, United States (07005)
Lat: 40.90N, Lon: 74.41W
Wx Zone: NJZ008
Local Info
Past Weather Observations for Thursday, February 26, 2015

NOTE: This archive is for the closest National Weather Service station to Boonton. Information may differ from the station used for current weather conditions.

Click here for Long-term Archive

Time Weather Temperature Dewpoint Humidity Pressure Winds Precip Visibility
23:53
Partly Cloudy
18°F / -8°C 9°F / -13°C 68% 30.18 in
(1022 mb)
E 3.5 mph
(E 6 kph)
- 10SM
22:53
Clear
19°F / -7°C 9°F / -13°C 63% 30.15 in
(1021 mb)
Calm - 10SM
21:53
Clear
19°F / -7°C 10°F / -12°C 68% 30.15 in
(1021 mb)
Calm - 10SM
20:53
Clear
21°F / -6°C 10°F / -12°C 63% 30.12 in
(1020 mb)
Calm - 10SM
19:53
Mostly Cloudy
23°F / -5°C 10°F / -12°C 58% 30.09 in
(1019 mb)
N 3.5 mph
(N 6 kph)
- 10SM
18:53
Overcast
23°F / -5°C 10°F / -12°C 58% 30.06 in
(1018 mb)
Calm - 10SM
17:53
Overcast
25°F / -4°C 10°F / -12°C 54% 30.04 in
(1017 mb)
Variable 4.6 mph
(Variable 7 kph)
- 10SM
16:53
Overcast
25°F / -4°C 10°F / -12°C 54% 30.04 in
(1017 mb)
N 5.8 mph
(N 9 kph)
- 10SM
15:53
Overcast
25°F / -4°C 12°F / -11°C 59% 30.01 in
(1016 mb)
Variable 4.6 mph
(Variable 7 kph)
- 10SM
14:53
Overcast
25°F / -4°C 12°F / -11°C 59% 29.98 in
(1015 mb)
NNW 6.9 mph
(NNW 11 kph)
0.00 in
(0.00 mm)
10SM
14:20
Overcast
Light Snow
25°F / -4°C 12°F / -11°C 59% 29.95 in
(1014 mb)
N 8.1 mph
(N 13 kph)
0.00 in
(0.00 mm)
3SM
14:15
Overcast
Light Snow
25°F / -4°C 14°F / -10°C 63% 29.95 in
(1014 mb)
NNE 5.8 mph
(NNE 9 kph)
0.00 in
(0.00 mm)
1 3/4SM
13:53
Mostly Cloudy
27°F / -3°C 14°F / -10°C 59% 29.92 in
(1013 mb)
Variable 5.8 mph
(Variable 9 kph)
0.00 in
(0.00 mm)
10SM
12:53
Overcast
Light Snow
21°F / -6°C 14°F / -10°C 74% 29.95 in
(1014 mb)
NE 6.9 mph
(NE 11 kph)
0.00 in
(0.00 mm)
4SM
12:43
Overcast
Light Snow
21°F / -6°C 14°F / -10°C 74% 29.95 in
(1014 mb)
NE 8.1 mph
(NE 13 kph)
0.00 in
(0.00 mm)
3SM
12:35
Overcast
Light Snow
21°F / -6°C 14°F / -10°C 74% 29.95 in
(1014 mb)
NE 8.1 mph
(NE 13 kph)
0.00 in
(0.00 mm)
2 1/2SM
11:53
Overcast
Light Snow
19°F / -7°C 12°F / -11°C 73% 30.01 in
(1016 mb)
NE 5.8 mph
(NE 9 kph)
0.00 in
(0.00 mm)
1 1/4SM
11:39
Overcast
Light Snow
19°F / -7°C 12°F / -11°C 73% 30.01 in
(1016 mb)
Variable 3.5 mph
(Variable 6 kph)
0.00 in
(0.00 mm)
1 1/2SM
10:53
Overcast
Light Snow
19°F / -7°C 10°F / -12°C 68% 30.04 in
(1017 mb)
Variable 4.6 mph
(Variable 7 kph)
0.00 in
(0.00 mm)
2 1/2SM
10:38
Overcast
Light Snow
19°F / -7°C 9°F / -13°C 63% 30.04 in
(1017 mb)
NE 6.9 mph
(NE 11 kph)
0.00 in
(0.00 mm)
2SM
09:53
Overcast
19°F / -7°C 3°F / -16°C 49% 30.04 in
(1017 mb)
NE 6.9 mph
(NE 11 kph)
- 10SM
08:53
Overcast
19°F / -7°C 3°F / -16°C 49% 30.04 in
(1017 mb)
NE 9.2 mph
(NE 15 kph)
- 10SM
07:53
Overcast
19°F / -7°C 3°F / -16°C 49% 30.04 in
(1017 mb)
ENE 6.9 mph
(ENE 11 kph)
- 10SM
06:53
Overcast
19°F / -7°C 1°F / -17°C 45% 30.04 in
(1017 mb)
NE 8.1 mph
(NE 13 kph)
- 10SM
05:53
Mostly Cloudy
19°F / -7°C 1°F / -17°C 45% 30.04 in
(1017 mb)
NE 11.5 mph
(NE 19 kph)
- 10SM
04:53
Mostly Cloudy
21°F / -6°C 1°F / -17°C 42% 30.01 in
(1016 mb)
NE 6.9 mph
(NE 11 kph)
- 10SM
03:53
Clear
21°F / -6°C 3°F / -16°C 45% 30.04 in
(1017 mb)
E 8.1 mph
(E 13 kph)
- 10SM
00:53
Clear
25°F / -4°C 7°F / -14°C 46% 30.04 in
(1017 mb)
NE 4.6 mph
(NE 7 kph)
- 10SM
Time Weather Temperature Dewpoint Humidity Pressure Winds Precip Visibility


Weather for websites

WeatherForYou.com, LLC is not responsible for any damages or problems caused by this service. Current weather conditions are obtained from the closest station including government and personal stations which may have varying degrees of accuracy. Weather forecasts are derived from the NOAA NDFD. Like all things, this site belongs to Jesus Christ... He just trusts me to maintain it. If you have any questions or comments email webmaster@weatherforyou.com

Copyright © 2015, WeatherForYou.com LLC. All rights reserved.